| time (UTC) | temp C | wind direction | speed KPH | gust KPH | rain 1hr cm | rain 24hr cm | rain mn cm | humidity % | barometer mb |
| 20260505205504 | 6 | 323 | 0.0 | 0.0 | 0.00 | 0.00 | 0.00 | 84 | 1013.5 |
| 20260505205003 | 6 | 323 | 0.0 | 0.0 | 0.00 | 0.00 | 0.00 | 84 | 1013.4 |
| 20260505204504 | 6 | 323 | 0.0 | 0.0 | 0.00 | 0.00 | 0.00 | 83 | 1013.4 |
| 20260505204004 | 6 | 323 | 0.0 | 1.6 | 0.00 | 0.00 | 0.00 | 83 | 1013.4 |
| 20260505203504 | 6 | 323 | 0.0 | 0.0 | 0.00 | 0.00 | 0.00 | 83 | 1013.4 |
| 20260505203004 | 6 | 323 | 0.0 | 1.6 | 0.00 | 0.00 | 0.00 | 83 | 1013.4 |
| 20260505202504 | 7 | 323 | 1.6 | 3.2 | 0.00 | 0.00 | 0.00 | 83 | 1013.4 |
| 20260505202004 | 7 | 323 | 0.0 | 0.0 | 0.00 | 0.00 | 0.00 | 83 | 1013.3 |
| 20260505201504 | 7 | 323 | 0.0 | 0.0 | 0.00 | 0.00 | 0.00 | 83 | 1013.3 |
| 20260505201004 | 7 | 323 | 0.0 | 1.6 | 0.00 | 0.00 | 0.00 | 82 | 1013.2 |
| 20260505200503 | 7 | 323 | 0.0 | 1.6 | 0.00 | 0.00 | 0.00 | 82 | 1013.2 |
| 20260505200003 | 7 | 323 | 0.0 | 4.8 | 0.00 | 0.00 | 0.00 | 82 | 1013.2 |
| 20260505195504 | 7 | 322 | 1.6 | 4.8 | 0.00 | 0.00 | 0.00 | 81 | 1013.2 |
| 20260505195003 | 7 | 324 | 1.6 | 4.8 | 0.00 | 0.00 | 0.00 | 81 | 1013.2 |
| 20260505194503 | 7 | 324 | 0.0 | 0.0 | 0.00 | 0.00 | 0.00 | 81 | 1013.3 |
| 20260505194004 | 7 | 324 | 1.6 | 3.2 | 0.00 | 0.00 | 0.00 | 80 | 1013.2 |
| 20260505193504 | 7 | 324 | 0.0 | 4.8 | 0.00 | 0.00 | 0.00 | 79 | 1013.1 |
| 20260505193004 | 7 | 324 | 1.6 | 4.8 | 0.00 | 0.00 | 0.00 | 79 | 1013.1 |
| 20260505192504 | 7 | 325 | 3.2 | 4.8 | 0.00 | 0.00 | 0.00 | 78 | 1013.1 |
| 20260505191503 | 7 | 336 | 1.6 | 4.8 | 0.00 | 0.00 | 0.00 | 77 | 1013.1 |
| 20260505191004 | 7 | 337 | 3.2 | 4.8 | 0.00 | 0.00 | 0.00 | 77 | 1013.0 |
| 20260505190004 | 7 | 329 | 1.6 | 4.8 | 0.00 | 0.00 | 0.00 | 76 | 1013.0 |
| 20260505185504 | 7 | 324 | 3.2 | 9.7 | 0.00 | 0.00 | 0.00 | 76 | 1012.9 |
| 20260505185004 | 7 | 306 | 1.6 | 4.8 | 0.00 | 0.00 | 0.00 | 76 | 1012.9 |
| 20260505184504 | 7 | 312 | 3.2 | 4.8 | 0.00 | 0.00 | 0.00 | 77 | 1012.9 |
| 20260505183504 | 8 | 324 | 3.2 | 4.8 | 0.00 | 0.00 | 0.00 | 76 | 1012.8 |
| 20260505182504 | 8 | 325 | 1.6 | 4.8 | 0.00 | 0.00 | 0.00 | 77 | 1012.9 |
| 20260505182004 | 8 | 320 | 1.6 | 9.7 | 0.00 | 0.00 | 0.00 | 77 | 1012.9 |
| 20260505181503 | 8 | 290 | 1.6 | 8.0 | 0.00 | 0.00 | 0.00 | 77 | 1012.8 |
| 20260505181004 | 8 | 316 | 1.6 | 4.8 | 0.00 | 0.00 | 0.00 | 77 | 1012.8 |
| 20260505180004 | 8 | 337 | 1.6 | 8.0 | 0.00 | 0.00 | 0.00 | 76 | 1012.7 |
| 20260505175503 | 8 | 316 | 3.2 | 9.7 | 0.00 | 0.00 | 0.00 | 76 | 1012.8 |
| 20260505175003 | 9 | 330 | 1.6 | 11.3 | 0.00 | 0.00 | 0.00 | 76 | 1012.7 |
| 20260505174504 | 9 | 315 | 1.6 | 4.8 | 0.00 | 0.00 | 0.00 | 76 | 1012.7 |
| 20260505174004 | 9 | 291 | 1.6 | 11.3 | 0.00 | 0.00 | 0.00 | 75 | 1012.7 |
| 20260505173503 | 9 | 326 | 3.2 | 8.0 | 0.00 | 0.00 | 0.00 | 75 | 1012.7 |
| 20260505173004 | 9 | 297 | 3.2 | 4.8 | 0.00 | 0.00 | 0.00 | 75 | 1012.7 |
| 20260505172004 | 10 | 343 | 4.8 | 9.7 | 0.00 | 0.00 | 0.00 | 75 | 1012.6 |
| 20260505171004 | 10 | 265 | 1.6 | 9.7 | 0.00 | 0.00 | 0.00 | 76 | 1012.6 |
| 20260505170503 | 10 | 342 | 3.2 | 4.8 | 0.00 | 0.00 | 0.00 | 77 | 1012.6 |
| 20260505165004 | 10 | 318 | 3.2 | 9.7 | 0.00 | 0.00 | 0.00 | 75 | 1012.7 |
| 20260505164504 | 11 | 19 | 1.6 | 11.3 | 0.00 | 0.00 | 0.00 | 74 | 1012.7 |
| 20260505164004 | 11 | 353 | 4.8 | 11.3 | 0.00 | 0.00 | 0.00 | 72 | 1012.7 |
| 20260505163503 | 11 | 296 | 3.2 | 11.3 | 0.00 | 0.00 | 0.00 | 72 | 1012.7 |
| 20260505163004 | 11 | 276 | 4.8 | 11.3 | 0.00 | 0.00 | 0.00 | 71 | 1012.7 |
| 20260505162504 | 11 | 267 | 3.2 | 12.9 | 0.00 | 0.00 | 0.00 | 71 | 1012.7 |
| 20260505162003 | 11 | 283 | 4.8 | 16.1 | 0.00 | 0.00 | 0.00 | 70 | 1012.7 |
| 20260505161003 | 11 | 327 | 3.2 | 9.7 | 0.00 | 0.00 | 0.00 | 68 | 1012.7 |
| 20260505160503 | 11 | 333 | 4.8 | 14.5 | 0.00 | 0.00 | 0.00 | 66 | 1012.7 |
| 20260505152504 | 12 | 337 | 3.2 | 12.9 | 0.00 | 0.00 | 0.00 | 65 | 1012.7 |
| 20260505152004 | 12 | 7 | 4.8 | 9.7 | 0.00 | 0.00 | 0.00 | 64 | 1012.7 |
| 20260505151504 | 12 | 346 | 4.8 | 11.3 | 0.00 | 0.00 | 0.00 | 62 | 1012.6 |
| 20260505151004 | 12 | 300 | 4.8 | 14.5 | 0.00 | 0.00 | 0.00 | 64 | 1012.6 |
| 20260505150504 | 12 | 332 | 4.8 | 12.9 | 0.00 | 0.00 | 0.00 | 62 | 1012.6 |
| 20260505140504 | 13 | 336 | 4.8 | 12.9 | 0.00 | 0.00 | 0.00 | 57 | 1012.6 |
| 20260505125004 | 13 | 269 | 8.0 | 14.5 | 0.00 | 0.00 | 0.00 | 58 | 1012.5 |
| 20260505124004 | 13 | 272 | 1.6 | 14.5 | 0.00 | 0.00 | 0.00 | 55 | 1012.4 |
| 20260505123504 | 13 | 299 | 4.8 | 14.5 | 0.00 | 0.00 | 0.00 | 53 | 1012.4 |
| 20260505123004 | 13 | 24 | 3.2 | 11.3 | 0.00 | 0.00 | 0.00 | 52 | 1012.4 |
| 20260505122503 | 13 | 303 | 1.6 | 19.3 | 0.00 | 0.00 | 0.00 | 50 | 1012.4 |
| 20260505122003 | 13 | 295 | 4.8 | 14.5 | 0.00 | 0.00 | 0.00 | 51 | 1012.4 |
| 20260505121503 | 13 | 237 | 4.8 | 16.1 | 0.00 | 0.00 | 0.00 | 50 | 1012.5 |
| 20260505120504 | 13 | 215 | 4.8 | 14.5 | 0.00 | 0.00 | 0.00 | 49 | 1012.4 |
| 20260505115004 | 13 | 296 | 1.6 | 8.0 | 0.00 | 0.00 | 0.00 | 55 | 1012.5 |
| 20260505114504 | 13 | 269 | 4.8 | 12.9 | 0.00 | 0.00 | 0.00 | 55 | 1012.4 |
| 20260505114004 | 13 | 298 | 6.4 | 11.3 | 0.00 | 0.00 | 0.00 | 54 | 1012.5 |
| 20260505113503 | 13 | 240 | 8.0 | 19.3 | 0.00 | 0.00 | 0.00 | 53 | 1012.5 |
| 20260505113004 | 13 | 243 | 6.4 | 19.3 | 0.00 | 0.00 | 0.00 | 55 | 1012.5 |
| 20260505112503 | 13 | 270 | 8.0 | 14.5 | 0.00 | 0.00 | 0.00 | 57 | 1012.5 |
| 20260505112004 | 13 | 59 | 3.2 | 11.3 | 0.00 | 0.00 | 0.00 | 61 | 1012.5 |
| 20260505111504 | 13 | 265 | 11.3 | 19.3 | 0.00 | 0.00 | 0.00 | 60 | 1012.5 |
| 20260505111003 | 12 | 273 | 6.4 | 16.1 | 0.00 | 0.00 | 0.00 | 62 | 1012.5 |
| 20260505110503 | 13 | 315 | 3.2 | 19.3 | 0.00 | 0.00 | 0.00 | 60 | 1012.6 |
| 20260505102004 | 12 | 274 | 1.6 | 11.3 | 0.00 | 0.00 | 0.00 | 63 | 1012.6 |
| 20260505101503 | 12 | 272 | 3.2 | 4.8 | 0.00 | 0.00 | 0.00 | 63 | 1012.6 |
| 20260505101004 | 12 | 331 | 3.2 | 12.9 | 0.00 | 0.00 | 0.00 | 64 | 1012.5 |
| 20260505100503 | 12 | 277 | 1.6 | 12.9 | 0.00 | 0.00 | 0.00 | 66 | 1012.5 |
| 20260505100004 | 12 | 272 | 0.0 | 4.8 | 0.00 | 0.00 | 0.00 | 66 | 1012.4 |
| 20260505095504 | 11 | 272 | 3.2 | 9.7 | 0.00 | 0.00 | 0.00 | 67 | 1012.4 |
| 20260505095003 | 12 | 281 | 1.6 | 11.3 | 0.00 | 0.00 | 0.00 | 67 | 1012.4 |
| 20260505094503 | 12 | 284 | 4.8 | 12.9 | 0.00 | 0.00 | 0.00 | 69 | 1012.5 |
| 20260505094004 | 12 | 348 | 1.6 | 8.0 | 0.00 | 0.00 | 0.00 | 67 | 1012.5 |
| 20260505093503 | 12 | 343 | 4.8 | 12.9 | 0.00 | 0.00 | 0.00 | 70 | 1012.5 |
| 20260505093004 | 12 | 314 | 1.6 | 4.8 | 0.00 | 0.00 | 0.00 | 71 | 1012.6 |
| 20260505092503 | 12 | 285 | 3.2 | 4.8 | 0.00 | 0.00 | 0.00 | 72 | 1012.5 |
| 20260505092004 | 11 | 12 | 1.6 | 4.8 | 0.00 | 0.00 | 0.00 | 71 | 1012.6 |
| 20260505091504 | 11 | 302 | 1.6 | 4.8 | 0.00 | 0.00 | 0.00 | 69 | 1012.6 |
| 20260505091003 | 11 | 265 | 3.2 | 9.7 | 0.00 | 0.00 | 0.00 | 71 | 1012.5 |
| 20260505090504 | 11 | 332 | 3.2 | 4.8 | 0.00 | 0.00 | 0.00 | 71 | 1012.6 |
| 20260505090004 | 11 | 324 | 3.2 | 9.7 | 0.00 | 0.00 | 0.00 | 71 | 1012.7 |
| 20260505085504 | 11 | 317 | 3.2 | 12.9 | 0.00 | 0.00 | 0.00 | 67 | 1012.8 |
| 20260505085003 | 11 | 279 | 3.2 | 11.3 | 0.00 | 0.00 | 0.00 | 69 | 1012.7 |
| 20260505084504 | 11 | 303 | 6.4 | 14.5 | 0.00 | 0.00 | 0.00 | 69 | 1012.7 |
| 20260505084003 | 11 | 315 | 3.2 | 11.3 | 0.00 | 0.00 | 0.00 | 69 | 1012.7 |
| 20260505083504 | 10 | 309 | 1.6 | 8.0 | 0.00 | 0.00 | 0.00 | 70 | 1012.7 |
| 20260505082503 | 10 | 299 | 3.2 | 8.0 | 0.00 | 0.00 | 0.00 | 72 | 1012.6 |
| 20260505082004 | 10 | 253 | 3.2 | 9.7 | 0.00 | 0.00 | 0.00 | 72 | 1012.6 |
| 20260505081503 | 10 | 282 | 1.6 | 11.3 | 0.00 | 0.00 | 0.00 | 72 | 1012.6 |
| 20260505081004 | 10 | 281 | 3.2 | 11.3 | 0.00 | 0.00 | 0.00 | 72 | 1012.6 |
| 20260505080503 | 10 | 276 | 4.8 | 12.9 | 0.00 | 0.00 | 0.00 | 72 | 1012.6 |
| 20260505080003 | 10 | 264 | 8.0 | 12.9 | 0.00 | 0.00 | 0.00 | 73 | 1012.6 |
| 20260505075503 | 10 | 336 | 1.6 | 8.0 | 0.00 | 0.00 | 0.00 | 74 | 1012.6 |
| 20260505074503 | 10 | 306 | 4.8 | 8.0 | 0.00 | 0.00 | 0.00 | 74 | 1012.6 |
| 20260505074003 | 10 | 273 | 3.2 | 9.7 | 0.00 | 0.00 | 0.00 | 74 | 1012.7 |
| 20260505073503 | 9 | 266 | 4.8 | 11.3 | 0.00 | 0.00 | 0.00 | 74 | 1012.6 |
| 20260505073004 | 9 | 275 | 6.4 | 16.1 | 0.00 | 0.00 | 0.00 | 74 | 1012.6 |
| 20260505072503 | 9 | 270 | 6.4 | 16.1 | 0.00 | 0.00 | 0.00 | 75 | 1012.7 |
| 20260505072004 | 8 | 284 | 3.2 | 11.3 | 0.00 | 0.00 | 0.00 | 76 | 1012.7 |
| 20260505071004 | 8 | 355 | 3.2 | 11.3 | 0.00 | 0.00 | 0.00 | 75 | 1012.7 |
| 20260505070503 | 8 | 309 | 3.2 | 11.3 | 0.00 | 0.00 | 0.00 | 75 | 1012.7 |
| 20260505070003 | 8 | 279 | 4.8 | 12.9 | 0.00 | 0.00 | 0.00 | 76 | 1012.6 |
| 20260505065504 | 8 | 283 | 6.4 | 11.3 | 0.00 | 0.00 | 0.00 | 78 | 1012.7 |
| 20260505065003 | 8 | 334 | 3.2 | 8.0 | 0.00 | 0.00 | 0.00 | 78 | 1012.6 |
| 20260505064503 | 8 | 325 | 4.8 | 9.7 | 0.00 | 0.00 | 0.00 | 77 | 1012.6 |
| 20260505064004 | 8 | 322 | 3.2 | 4.8 | 0.00 | 0.00 | 0.00 | 79 | 1012.6 |
| 20260505063504 | 8 | 313 | 3.2 | 11.3 | 0.00 | 0.00 | 0.00 | 79 | 1012.7 |
| 20260505063004 | 8 | 313 | 1.6 | 4.8 | 0.00 | 0.00 | 0.00 | 79 | 1012.6 |
| 20260505062504 | 8 | 336 | 3.2 | 12.9 | 0.00 | 0.00 | 0.00 | 81 | 1012.7 |
| 20260505062004 | 8 | 284 | 3.2 | 9.7 | 0.00 | 0.00 | 0.00 | 81 | 1012.7 |
| 20260505061504 | 8 | 296 | 4.8 | 11.3 | 0.00 | 0.00 | 0.00 | 82 | 1012.6 |
| 20260505055505 | 7 | 336 | 1.6 | 9.7 | 0.00 | 0.00 | 0.00 | 84 | 1012.7 |
| 20260505055003 | 7 | 308 | 6.4 | 16.1 | 0.00 | 0.00 | 0.00 | 84 | 1012.7 |
| 20260505054504 | 7 | 9 | 3.2 | 4.8 | 0.00 | 0.00 | 0.00 | 85 | 1012.6 |
| 20260505054004 | 7 | 299 | 3.2 | 12.9 | 0.00 | 0.00 | 0.00 | 87 | 1012.6 |
| 20260505053004 | 7 | 328 | 4.8 | 16.1 | 0.00 | 0.00 | 0.00 | 89 | 1012.6 |
| 20260505052503 | 7 | 283 | 1.6 | 9.7 | 0.00 | 0.00 | 0.00 | 89 | 1012.6 |
| 20260505052003 | 7 | 302 | 1.6 | 4.8 | 0.00 | 0.00 | 0.00 | 90 | 1012.4 |
| 20260505051504 | 7 | 337 | 4.8 | 12.9 | 0.00 | 0.00 | 0.00 | 91 | 1012.4 |
| 20260505051004 | 6 | 314 | 1.6 | 9.7 | 0.00 | 0.00 | 0.00 | 92 | 1012.4 |
| 20260505041504 | 6 | 276 | 3.2 | 9.7 | 0.00 | 0.00 | 0.00 | 95 | 1012.3 |
| 20260505041004 | 6 | 274 | 1.6 | 4.8 | 0.00 | 0.00 | 0.00 | 95 | 1012.2 |
| 20260505040503 | 6 | 275 | 1.6 | 4.8 | 0.00 | 0.00 | 0.00 | 95 | 1012.2 |
| 20260505035503 | 6 | 274 | 1.6 | 4.8 | 0.00 | 0.00 | 0.00 | 94 | 1012.1 |
| 20260505035004 | 6 | 273 | 1.6 | 4.8 | 0.00 | 0.00 | 0.00 | 95 | 1012.1 |
| 20260505034504 | 6 | 296 | 1.6 | 3.2 | 0.00 | 0.00 | 0.00 | 95 | 1012.1 |
| 20260505033504 | 6 | 296 | 1.6 | 4.8 | 0.00 | 0.00 | 0.00 | 95 | 1012.2 |
| 20260505033004 | 6 | 296 | 1.6 | 4.8 | 0.00 | 0.00 | 0.00 | 95 | 1012.2 |
| 20260505032504 | 6 | 312 | 1.6 | 4.8 | 0.00 | 0.00 | 0.00 | 95 | 1012.2 |
| 20260505032003 | 6 | 296 | 1.6 | 8.0 | 0.00 | 0.00 | 0.00 | 95 | 1012.2 |
| 20260505031503 | 7 | 289 | 3.2 | 4.8 | 0.00 | 0.00 | 0.00 | 95 | 1012.2 |
| 20260505030004 | 7 | 269 | 3.2 | 4.8 | 0.00 | 0.00 | 0.00 | 96 | 1012.2 |
| 20260505025504 | 7 | 275 | 4.8 | 9.7 | 0.00 | 0.00 | 0.00 | 96 | 1012.1 |
| 20260505025004 | 6 | 273 | 3.2 | 4.8 | 0.00 | 0.00 | 0.00 | 96 | 1012.1 |
| 20260505024503 | 6 | 243 | 1.6 | 4.8 | 0.00 | 0.00 | 0.00 | 96 | 1012.2 |
| 20260505024004 | 6 | 249 | 1.6 | 3.2 | 0.00 | 0.00 | 0.00 | 95 | 1012.2 |
| 20260505023503 | 6 | 249 | 1.6 | 4.8 | 0.00 | 0.00 | 0.00 | 95 | 1012.2 |
| 20260505023004 | 6 | 250 | 1.6 | 4.8 | 0.00 | 0.00 | 0.00 | 95 | 1012.2 |
| 20260505022504 | 6 | 250 | 3.2 | 4.8 | 0.00 | 0.00 | 0.00 | 95 | 1012.2 |
| 20260505022004 | 6 | 250 | 1.6 | 4.8 | 0.00 | 0.00 | 0.00 | 95 | 1012.3 |
| 20260505021504 | 6 | 251 | 3.2 | 8.0 | 0.00 | 0.00 | 0.00 | 95 | 1012.3 |
| 20260505021004 | 6 | 243 | 3.2 | 4.8 | 0.00 | 0.00 | 0.00 | 95 | 1012.3 |
| 20260505020503 | 6 | 261 | 1.6 | 4.8 | 0.00 | 0.00 | 0.00 | 95 | 1012.3 |
| 20260505015503 | 6 | 238 | 3.2 | 9.7 | 0.00 | 0.00 | 0.00 | 95 | 1012.3 |
| 20260505015004 | 6 | 257 | 3.2 | 9.7 | 0.00 | 0.00 | 0.00 | 95 | 1012.4 |
| 20260505014004 | 5 | 264 | 3.2 | 4.8 | 0.00 | 0.00 | 0.00 | 95 | 1012.4 |
| 20260505013503 | 5 | 259 | 3.2 | 9.7 | 0.00 | 0.00 | 0.00 | 95 | 1012.4 |
| 20260505013004 | 6 | 244 | 3.2 | 9.7 | 0.00 | 0.00 | 0.00 | 95 | 1012.4 |
| 20260505012503 | 6 | 248 | 4.8 | 9.7 | 0.00 | 0.00 | 0.00 | 95 | 1012.4 |
| 20260505012004 | 5 | 249 | 4.8 | 11.3 | 0.00 | 0.00 | 0.00 | 95 | 1012.4 |
| 20260505011504 | 5 | 268 | 8.0 | 12.9 | 0.00 | 0.00 | 0.00 | 95 | 1012.4 |
| 20260505011004 | 5 | 263 | 4.8 | 11.3 | 0.00 | 0.00 | 0.00 | 95 | 1012.4 |
| 20260505010503 | 5 | 265 | 4.8 | 9.7 | 0.00 | 0.00 | 0.00 | 94 | 1012.5 |
| 20260505010004 | 5 | 259 | 3.2 | 4.8 | 0.00 | 0.00 | 0.00 | 95 | 1012.5 |
| 20260505005004 | 5 | 266 | 6.4 | 11.3 | 0.00 | 0.03 | 0.00 | 95 | 1012.5 |
| 20260505004504 | 5 | 261 | 6.4 | 11.3 | 0.00 | 0.03 | 0.00 | 94 | 1012.6 |
| 20260505004003 | 6 | 255 | 3.2 | 4.8 | 0.00 | 0.03 | 0.00 | 94 | 1012.6 |
| 20260505003503 | 6 | 250 | 3.2 | 4.8 | 0.00 | 0.03 | 0.00 | 94 | 1012.7 |
| 20260505003004 | 6 | 250 | 3.2 | 4.8 | 0.00 | 0.03 | 0.00 | 94 | 1012.7 |
| 20260505002504 | 6 | 234 | 4.8 | 8.0 | 0.00 | 0.03 | 0.00 | 94 | 1012.7 |
| 20260505002004 | 6 | 240 | 3.2 | 8.0 | 0.00 | 0.03 | 0.00 | 94 | 1012.7 |
| 20260505001503 | 6 | 247 | 4.8 | 11.3 | 0.00 | 0.03 | 0.00 | 94 | 1012.7 |
| 20260505000504 | 6 | 246 | 3.2 | 4.8 | 0.00 | 0.03 | 0.00 | 94 | 1012.7 |
| 20260504235004 | 6 | 256 | 4.8 | 8.0 | 0.00 | 0.03 | 0.00 | 95 | 1012.7 |
| 20260504234504 | 6 | 271 | 4.8 | 12.9 | 0.00 | 0.03 | 0.00 | 95 | 1012.7 |
| 20260504233504 | 6 | 246 | 3.2 | 11.3 | 0.00 | 0.05 | 0.00 | 95 | 1012.8 |
| 20260504233004 | 6 | 235 | 4.8 | 9.7 | 0.00 | 0.05 | 0.00 | 95 | 1012.8 |
| 20260504232504 | 6 | 260 | 3.2 | 8.0 | 0.00 | 0.08 | 0.00 | 95 | 1012.8 |
| 20260504232004 | 6 | 242 | 1.6 | 11.3 | 0.00 | 0.10 | 0.00 | 95 | 1012.8 |
| 20260504231004 | 6 | 252 | 3.2 | 4.8 | 0.00 | 0.13 | 0.00 | 95 | 1012.8 |
| 20260504230504 | 6 | 234 | 3.2 | 4.8 | 0.00 | 0.15 | 0.00 | 95 | 1012.9 |
| 20260504230004 | 6 | 234 | 3.2 | 4.8 | 0.00 | 0.15 | 0.00 | 95 | 1012.9 |
| 20260504225003 | 6 | 236 | 3.2 | 4.8 | 0.00 | 0.15 | 0.00 | 94 | 1012.9 |
| 20260504224003 | 5 | 252 | 0.0 | 0.0 | 0.00 | 0.15 | 0.00 | 94 | 1012.9 |
| 20260504223504 | 5 | 252 | 0.0 | 1.6 | 0.00 | 0.15 | 0.00 | 93 | 1012.9 |
| 20260504223004 | 6 | 252 | 1.6 | 3.2 | 0.00 | 0.15 | 0.00 | 93 | 1012.9 |
| 20260504222504 | 6 | 252 | 1.6 | 3.2 | 0.00 | 0.15 | 0.00 | 94 | 1012.9 |
| 20260504222003 | 6 | 252 | 1.6 | 4.8 | 0.00 | 0.15 | 0.00 | 94 | 1012.8 |
| 20260504221504 | 6 | 252 | 1.6 | 3.2 | 0.00 | 0.15 | 0.00 | 93 | 1012.8 |
| 20260504221004 | 6 | 252 | 1.6 | 3.2 | 0.00 | 0.15 | 0.00 | 93 | 1012.9 |
| 20260504220504 | 6 | 252 | 1.6 | 4.8 | 0.00 | 0.15 | 0.00 | 93 | 1012.8 |
| 20260504215503 | 6 | 261 | 3.2 | 4.8 | 0.00 | 0.15 | 0.15 | 93 | 1012.9 |
| 20260504215004 | 6 | 262 | 1.6 | 4.8 | 0.00 | 0.15 | 0.15 | 93 | 1013.0 |
| 20260504214003 | 6 | 269 | 4.8 | 9.7 | 0.00 | 0.15 | 0.15 | 93 | 1013.0 |
| 20260504213503 | 6 | 265 | 3.2 | 4.8 | 0.00 | 0.15 | 0.15 | 93 | 1013.0 |
| 20260504213004 | 6 | 263 | 4.8 | 9.7 | 0.00 | 0.15 | 0.15 | 93 | 1013.0 |
| 20260504212503 | 6 | 269 | 4.8 | 9.7 | 0.00 | 0.15 | 0.15 | 92 | 1013.0 |
| 20260504212004 | 6 | 259 | 6.4 | 11.3 | 0.00 | 0.15 | 0.15 | 92 | 1013.0 |
| 20260504211004 | 6 | 271 | 6.4 | 12.9 | 0.00 | 0.15 | 0.15 | 92 | 1013.0 |
| 20260504210004 | 6 | 255 | 3.2 | 4.8 | 0.00 | 0.15 | 0.15 | 92 | 1013.0 |